SCP
0 0 0 0 0 0 0 0 0 0 0 0 0 0 0 0 0 0 0 0 0 0 0 0 0 0 0 0 0 0 0 0 0 0 0 0 0 0 0 0 0 0 0
0 0 0 0 0 0 0 0 0 0 0 0 0 0 0 0 0 0 0 0 0 0 0 0 0 0 0 0 0 0 0 0 0 0 0 0 0 0 0 0 0 0 0
0 0 0 0 0 0 0 0 0 0 0 0 0 0 0 0 0 0 0 0 0 0 0 0 0 0 0 0 0 0 0 0 0 0 0 0 0 0 0 0 0 0 0
0 0 0 0 0 0 0 0 0 0 0 0 0 0 0 0 0 0 0 0 0 0 0 0 0 0 0 0 0 0 0 0 0 0 -0 -0 0 0 0 0 0 0 0
0 0 0 0 0 0 0 0 0 0 0 0 0 0 0 0 0 0 0 0 0 0 0 0 0 0 0 0 0 0 0 0 0 0 0 0 0 0 0 0 0 0 0
0 0 0 0 0 0 0 0 0 0 0 0 0 0 0 0 0 0 0 0 0 0 0 0 0 0 0 0 0 0 0 -0 0 0 0 0 0 0 0 0 0 0 0
0 0 0 0 0 0 0 0 0 0 0 0 0 0 0 0 0 0 0 0 0 0 0 0 0 0 -0 0 -0 0 0 0 0 0 0 0 0 0 0 0 0 0 0
0 0 0 0 0 0 0 0 0 0 0 0 0 0 0 0 0 0 0 0 0 0 0 0 0 0 -0 -0 -0 0 0 0 0 0 0 0 0 0 0 0 0 0 0
0 0 0 0 0 0 0 0 0 0 0 0 0 0 0 0 0 0 0 0 0 0 0 0 0 0 -0 -0 0 -0 0 0 0 0 0 0 0 0 0 0 0 0 0
0 0 0 0 0 0 0 0 0 0 0 0 0 0 0 0 0 0 0 0 0 0 0 0 0 0 0 0 0 0 0 0 0 0 0 0 0 0 0 0 0 0 0
0 0 0 0 0 0 0 0 0 0 0 0 0 0 0 0 0 0 0 0 0 0 0 0 0 0 0 0 0 0 0 0 0 0 0 0 0 0 0 0 0 0 0
0 0 0 0 0 0 0 0 0 0 0 0 0 0 0 0 0 0 0 0 0 0 0 0 0 0 0 0 0 0 0 0 0 0 0 0 0 0 0 0 0 0 0
0 0 0 0 0 0 0 0 0 0 0 0 0 0 0 0 0 0 0 0 0 0 0 0 0 0 0 0 0 0 0 0 0 0 0 0 0 0 0 0 0 0 0
0 0 0 0 0 0 0 0 0 0 0 0 0 0 0 0 0 0 0 0 0 0 0 0 0 0 0 0 0 0 0 0 0 0 0 0 0 0 0 0 0 0 0
-0 0 0 0 0 0 0 0 0 0 0 0 0 0 0 0 0 0 0 0 0 0 0 0 0 0 0 0 0 0 -0 0 0 0 0 0 0 0 0 0 0 0 0
0 0 0 0 0 0 0 0 0 0 0 0 0 0 0 0 0 0 0 0 0 0 0 0 0 0 0 0 0 0 0 0 0 0 0 0 0 0 0 0 0 0 0
0 0 0 0 0 0 0 0 0 0 0 0 0 0 0 0 0 -0 0 0 0 0 0 0 0 0 0 0 0 0 0 0 0 0 0 0 0 0 0 0 0 -0 -0
0 0 0 0 0 0 0 0 0 0 0 0 0 0 0 0 0 0 0 0 0 0 0 0 0 0 0 0 0 0 0 0 0 0 0 0 0 0 0 -0 -0 -0 -0
0 0 0 0 0 0 0 0 0 0 0 0 0 0 0 0 0 0 0 0 0 0 0 0 0 0 0 0 0 0 0 0 0 0 0 0 0 0 -0 -0 -0 -0 0
0 0 0 0 0 0 0 0 0 0 0 0 0 0 0 0 0 0 0 0 0 0 0 0 0 0 0 0 0 0 0 0 0 0 0 0 0 0 0 -0 -0 -0 0
0 0 0 0 0 0 0 0 0 0 0 0 0 0 0 0 0 0 0 0 0 0 0 0 0 0 0 0 0 0 0 0 0 0 0 0 0 0 0 0 -0 -0 0
0 0 0 0 0 0 0 0 0 0 0 0 0 0 0 0 0 0 0 0 0 0 0 0 0 0 0 0 0 0 0 0 0 0 0 0 0 0 0 0 0 0 0
0 0 0 0 0 0 0 0 0 0 0 0 0 0 0 0 -0 -0 -0 0 0 0 0 0 0 0 0 0 0 0 0 0 0 0 0 0 0 0 0 0 0 0 0
0 0 0 0 0 0 0 0 0 0 0 0 0 0 0 0 0 0 -0 0 0 0 0 0 0 0 0 0 0 0 0 0 0 0 0 0 0 0 0 0 0 0 0
0 0 0 0 0 0 0 0 0 0 0 0 0 0 0 0 0 0 0 0 0 0 0 0 0 0 0 0 0 0 0 0 0 0 0 0 0 0 0 0 0 0 0
0 0 0 0 0 0 0 0 0 0 0 0 0 0 0 0 0 0 0 0 0 0 0 0 0 0 0 0 0 0 0 0 0 0 0 0 0 -0 -0 0 0 0 0
Wind_Speed_500mb
25 29 32 31 29 29 34 37 44 49 52 53 50 53 54 53 53 50 51 53 54 51 51 57 58 61 65 66 58 61 65 73 86 61 60 74 52 57 46 49 47 39 37
28 33 34 37 41 46 46 49 54 57 57 60 56 51 50 51 52 54 53 49 48 49 50 52 59 61 66 62 66 71 75 71 86 91 82 80 59 60 48 45 40 39 41
35 34 36 37 39 44 50 53 58 60 64 63 59 57 51 52 52 53 55 52 52 50 49 55 49 53 64 67 67 68 63 76 99 80 72 59 53 46 41 41 39 39 46
37 43 44 46 51 52 59 62 65 65 63 63 67 67 59 63 59 54 54 55 54 57 57 55 58 65 64 66 66 64 64 71 52 56 56 50 44 50 45 38 41 42 39
34 41 48 52 55 62 67 70 71 71 69 70 71 65 69 73 65 56 58 61 62 61 60 55 60 56 53 54 58 51 63 58 61 62 55 54 53 49 44 38 28 20 15
39 47 52 59 66 69 71 74 73 75 75 75 75 74 71 69 63 57 59 65 65 64 61 53 57 61 56 46 49 51 78 77 77 61 54 55 52 39 29 21 14 8 13
54 61 67 72 75 79 82 81 83 85 81 78 78 78 78 73 74 66 70 67 66 62 55 49 45 55 57 54 39 37 45 51 60 54 51 46 38 33 29 18 6 8 19
69 74 76 76 80 81 78 78 78 74 81 85 86 84 83 82 77 75 65 63 62 64 54 53 56 53 64 60 51 46 50 44 44 41 35 38 35 31 21 10 3 11 20
72 68 65 64 68 69 69 69 70 75 80 82 81 82 82 81 78 74 73 71 63 63 55 58 62 62 49 65 56 45 42 45 43 41 34 32 26 20 11 6 8 16 25
77 84 87 93 99 104 104 104 103 100 97 90 88 83 82 82 76 72 73 77 70 61 50 49 57 50 53 40 53 53 53 51 53 41 37 31 23 16 9 6 11 16 24
102 106 110 111 110 109 104 93 85 81 80 78 77 84 88 84 82 85 86 70 68 55 56 45 46 48 42 44 25 36 47 49 47 41 38 32 26 22 16 13 13 17 24
100 101 96 89 84 79 73 71 70 67 68 69 73 73 73 76 75 62 61 61 57 55 53 39 38 44 46 38 49 35 28 38 39 39 35 31 31 29 18 16 19 20 24
82 81 79 77 74 69 64 61 63 61 58 60 62 62 64 56 57 56 54 54 55 58 51 40 32 30 36 38 37 38 35 33 30 37 39 41 37 25 27 28 24 24 25
72 71 71 70 68 64 58 58 59 64 59 57 50 50 47 47 54 47 44 45 49 52 54 48 41 34 39 23 42 46 42 41 33 45 47 47 37 34 33 30 27 25 29
65 66 68 67 66 66 64 59 54 58 61 64 59 56 53 49 52 46 40 42 45 50 46 47 45 43 41 37 31 46 64 44 42 43 46 49 38 35 33 30 27 26 26
62 64 63 64 64 63 62 62 52 51 55 64 65 64 63 59 52 40 36 41 49 40 49 60 55 49 44 43 43 48 47 51 46 45 39 39 32 30 27 30 28 26 28
57 58 62 62 60 57 55 55 60 53 47 44 47 59 58 56 55 57 50 38 37 54 51 49 55 53 47 43 49 49 45 53 48 36 34 29 26 20 23 28 30 28 28
48 52 53 52 51 50 49 50 51 54 56 53 42 38 46 62 59 62 58 51 39 45 51 54 52 45 45 42 46 51 54 48 50 40 38 35 34 34 35 32 30 25 25
46 46 46 49 47 45 44 46 43 45 49 51 46 39 32 36 51 59 55 63 62 61 52 50 49 46 41 37 39 47 46 51 53 51 47 44 41 40 38 31 25 24 27
42 38 38 42 42 40 39 41 41 42 44 44 41 37 27 20 33 50 62 61 71 69 68 67 58 48 50 42 39 42 45 43 41 39 39 41 39 33 30 25 25 29 29
40 41 36 33 33 32 35 36 38 41 41 40 38 27 15 20 25 41 60 74 70 67 60 71 69 65 58 50 40 41 45 45 40 39 36 36 38 37 33 28 27 23 19
35 33 32 29 29 27 28 29 28 31 32 37 29 9 5 14 21 26 37 51 65 79 76 77 70 68 67 58 45 38 43 45 43 39 36 37 39 36 30 24 21 21 20
37 35 31 29 26 26 32 33 32 33 36 34 32 20 9 2 11 20 23 27 34 47 66 75 78 75 71 69 54 40 34 47 49 42 31 35 35 32 24 18 21 24 29
41 44 38 33 30 29 32 35 35 32 31 33 33 29 20 10 4 12 22 20 24 29 37 61 69 72 68 75 58 40 34 38 43 44 45 41 35 28 25 27 24 23 24
45 48 46 44 41 39 37 35 36 34 33 30 27 24 23 22 17 14 15 15 16 22 28 40 64 62 65 76 61 41 44 40 43 44 42 39 35 31 36 44 44 36 29
49 52 54 52 50 48 43 39 36 34 35 36 35 24 19 15 14 12 7 4 10 18 24 28 48 48 61 75 63 42 41 48 44 36 31 34 36 35 35 30 34 35 26
Wind_Direction_500mb
241 247 249 255 261 269 275 281 288 294 298 304 303 307 308 311 307 307 304 298 300 306 290 286 289 288 279 272 266 255 249 247 233 239 235 236 241 241 241 259 255 255 261
256 259 267 276 282 282 283 288 290 292 292 296 299 305 307 308 310 311 310 315 308 308 302 295 284 285 281 274 262 257 263 250 236 247 245 240 244 245 258 250 248 262 273
275 278 284 288 282 278 283 287 290 292 293 293 292 298 303 312 310 311 310 311 316 307 311 303 296 286 281 277 265 255 252 251 252 254 244 223 231 250 237 242 251 264 269
278 284 282 275 273 276 283 283 286 288 289 289 291 293 297 304 304 303 304 307 305 307 294 301 300 291 276 273 266 258 248 247 217 211 218 227 227 229 232 251 260 263 264
265 258 264 275 279 281 278 281 282 280 278 281 285 283 287 295 295 292 294 295 298 299 300 291 298 292 283 268 261 250 229 221 228 221 225 225 227 227 232 245 249 251 273
275 275 278 280 282 282 282 281 278 275 278 280 278 282 282 282 280 289 290 287 289 291 295 286 291 291 287 269 258 236 227 242 235 236 233 225 211 219 224 215 229 291 342
288 287 286 286 286 285 284 282 279 280 281 277 276 279 281 280 278 290 294 277 281 281 285 281 287 281 273 278 271 251 232 228 227 213 211 207 209 199 186 188 231 357 350
293 292 292 289 283 280 280 278 277 279 279 277 277 277 278 278 276 283 295 277 278 272 274 274 274 273 274 258 253 233 247 246 213 210 209 180 172 172 173 185 264 328 336
294 295 291 287 286 286 285 284 282 278 273 269 273 276 274 272 272 275 288 289 274 271 264 262 271 266 275 259 237 241 244 202 186 187 174 171 174 175 185 226 288 322 331
296 295 294 293 293 291 289 287 284 280 277 275 273 266 263 266 266 270 275 286 265 268 258 258 257 272 262 242 223 234 212 188 187 187 184 186 194 205 226 283 293 320 325
300 298 295 293 292 291 291 289 286 283 283 281 275 269 266 264 263 268 271 262 253 260 260 257 259 248 252 228 224 213 206 193 195 198 199 202 213 233 240 272 298 314 313
298 297 297 296 296 295 291 288 286 286 283 276 268 265 265 261 269 260 260 250 251 247 257 252 262 241 231 236 231 202 209 204 208 213 212 211 228 238 249 277 284 299 314
302 300 301 302 302 301 298 293 283 282 283 276 278 262 266 262 265 264 263 250 246 238 243 244 258 244 224 219 217 210 211 228 238 231 229 229 234 243 263 261 271 282 299
302 303 304 303 303 300 288 279 276 275 278 276 270 254 253 260 265 264 257 251 238 235 235 240 240 255 234 229 218 214 219 228 247 252 248 238 236 243 248 257 263 278 295
305 307 309 309 307 305 302 297 285 276 274 271 272 266 264 258 252 266 267 242 241 235 226 219 229 235 245 251 231 207 219 230 239 243 228 231 239 245 247 254 260 276 302
308 309 311 311 311 309 307 306 300 288 276 265 263 260 253 253 257 251 251 243 243 223 224 229 227 224 234 236 228 220 227 225 232 224 221 228 235 241 245 250 260 269 283
309 313 315 314 313 311 309 306 307 310 299 287 266 256 250 250 247 242 237 239 229 232 230 222 227 229 233 234 225 222 222 215 220 224 224 223 237 241 242 243 248 253 274
318 322 323 322 318 315 314 311 307 304 305 304 297 277 256 246 246 237 236 239 236 204 209 213 219 219 221 221 222 221 219 211 225 233 233 232 240 246 245 244 242 251 263
328 331 334 330 328 325 324 321 317 312 308 308 306 295 279 249 234 226 223 224 226 223 213 201 202 200 205 210 215 214 214 216 221 230 239 240 234 234 239 233 230 248 264
336 338 340 338 339 338 336 333 328 325 322 319 313 304 291 258 227 218 213 217 224 225 226 220 216 207 203 203 205 206 210 203 206 213 216 214 207 213 227 216 241 253 265
343 347 337 335 337 340 342 339 337 335 332 331 327 317 286 246 227 216 217 218 215 216 217 225 223 213 204 202 197 198 203 198 196 202 202 208 214 213 218 239 241 236 257
358 355 357 358 360 359 358 357 1 3 1 1 349 352 252 221 217 219 219 220 223 223 222 223 224 222 214 211 201 199 201 200 199 203 209 215 220 224 224 212 227 249 257
18 16 18 23 25 16 16 18 19 18 19 29 25 32 28 302 214 209 204 209 212 218 223 224 223 221 214 217 204 199 201 203 201 199 216 194 184 187 196 220 253 260 257
28 27 28 27 25 25 24 25 26 29 31 37 45 35 32 35 89 178 179 193 201 207 213 212 218 218 206 209 199 191 177 187 200 203 196 189 196 204 220 235 256 275 258
35 33 34 30 30 26 27 26 32 37 34 30 35 46 53 54 74 113 153 184 206 204 208 209 208 208 195 198 191 189 178 170 174 184 194 209 223 242 262 260 258 270 259
40 37 38 36 33 33 30 27 33 34 37 37 36 47 51 61 56 53 78 168 189 191 195 202 208 200 193 193 181 176 180 185 190 203 221 233 240 257 286 252 247 252 251
Wind_Speed_850mb
25 29 32 31 29 29 34 37 44 49 52 53 50 53 54 53 53 50 51 53 54 51 51 57 58 61 65 66 58 61 65 73 86 61 60 74 52 57 46 49 47 39 37
28 33 34 37 41 46 46 49 54 57 57 60 56 51 50 51 52 54 53 49 48 49 50 52 59 61 66 62 66 71 75 71 86 91 82 80 59 60 48 45 40 39 41
35 34 36 37 39 44 50 53 58 60 64 63 59 57 51 52 52 53 55 52 52 50 49 55 49 53 64 67 67 68 63 76 99 80 72 59 53 46 41 41 39 39 46
37 43 44 46 51 52 59 62 65 65 63 63 67 67 59 63 59 54 54 55 54 57 57 55 58 65 64 66 66 64 64 71 52 56 56 50 44 50 45 38 41 42 39
34 41 48 52 55 62 67 70 71 71 69 70 71 65 69 73 65 56 58 61 62 61 60 55 60 56 53 54 58 51 63 58 61 62 55 54 53 49 44 38 28 20 15
39 47 52 59 66 69 71 74 73 75 75 75 75 74 71 69 63 57 59 65 65 64 61 53 57 61 56 46 49 51 78 77 77 61 54 55 52 39 29 21 14 8 13
54 61 67 72 75 79 82 81 83 85 81 78 78 78 78 73 74 66 70 67 66 62 55 49 45 55 57 54 39 37 45 51 60 54 51 46 38 33 29 18 6 8 19
69 74 76 76 80 81 78 78 78 74 81 85 86 84 83 82 77 75 65 63 62 64 54 53 56 53 64 60 51 46 50 44 44 41 35 38 35 31 21 10 3 11 20
72 68 65 64 68 69 69 69 70 75 80 82 81 82 82 81 78 74 73 71 63 63 55 58 62 62 49 65 56 45 42 45 43 41 34 32 26 20 11 6 8 16 25
77 84 87 93 99 104 104 104 103 100 97 90 88 83 82 82 76 72 73 77 70 61 50 49 57 50 53 40 53 53 53 51 53 41 37 31 23 16 9 6 11 16 24
102 106 110 111 110 109 104 93 85 81 80 78 77 84 88 84 82 85 86 70 68 55 56 45 46 48 42 44 25 36 47 49 47 41 38 32 26 22 16 13 13 17 24
100 101 96 89 84 79 73 71 70 67 68 69 73 73 73 76 75 62 61 61 57 55 53 39 38 44 46 38 49 35 28 38 39 39 35 31 31 29 18 16 19 20 24
82 81 79 77 74 69 64 61 63 61 58 60 62 62 64 56 57 56 54 54 55 58 51 40 32 30 36 38 37 38 35 33 30 37 39 41 37 25 27 28 24 24 25
72 71 71 70 68 64 58 58 59 64 59 57 50 50 47 47 54 47 44 45 49 52 54 48 41 34 39 23 42 46 42 41 33 45 47 47 37 34 33 30 27 25 29
65 66 68 67 66 66 64 59 54 58 61 64 59 56 53 49 52 46 40 42 45 50 46 47 45 43 41 37 31 46 64 44 42 43 46 49 38 35 33 30 27 26 26
62 64 63 64 64 63 62 62 52 51 55 64 65 64 63 59 52 40 36 41 49 40 49 60 55 49 44 43 43 48 47 51 46 45 39 39 32 30 27 30 28 26 28
57 58 62 62 60 57 55 55 60 53 47 44 47 59 58 56 55 57 50 38 37 54 51 49 55 53 47 43 49 49 45 53 48 36 34 29 26 20 23 28 30 28 28
48 52 53 52 51 50 49 50 51 54 56 53 42 38 46 62 59 62 58 51 39 45 51 54 52 45 45 42 46 51 54 48 50 40 38 35 34 34 35 32 30 25 25
46 46 46 49 47 45 44 46 43 45 49 51 46 39 32 36 51 59 55 63 62 61 52 50 49 46 41 37 39 47 46 51 53 51 47 44 41 40 38 31 25 24 27
42 38 38 42 42 40 39 41 41 42 44 44 41 37 27 20 33 50 62 61 71 69 68 67 58 48 50 42 39 42 45 43 41 39 39 41 39 33 30 25 25 29 29
40 41 36 33 33 32 35 36 38 41 41 40 38 27 15 20 25 41 60 74 70 67 60 71 69 65 58 50 40 41 45 45 40 39 36 36 38 37 33 28 27 23 19
35 33 32 29 29 27 28 29 28 31 32 37 29 9 5 14 21 26 37 51 65 79 76 77 70 68 67 58 45 38 43 45 43 39 36 37 39 36 30 24 21 21 20
37 35 31 29 26 26 32 33 32 33 36 34 32 20 9 2 11 20 23 27 34 47 66 75 78 75 71 69 54 40 34 47 49 42 31 35 35 32 24 18 21 24 29
41 44 38 33 30 29 32 35 35 32 31 33 33 29 20 10 4 12 22 20 24 29 37 61 69 72 68 75 58 40 34 38 43 44 45 41 35 28 25 27 24 23 24
45 48 46 44 41 39 37 35 36 34 33 30 27 24 23 22 17 14 15 15 16 22 28 40 64 62 65 76 61 41 44 40 43 44 42 39 35 31 36 44 44 36 29
49 52 54 52 50 48 43 39 36 34 35 36 35 24 19 15 14 12 7 4 10 18 24 28 48 48 61 75 63 42 41 48 44 36 31 34 36 35 35 30 34 35 26
Wind_Direction_850mb
241 247 249 255 261 269 275 281 288 294 298 304 303 307 308 311 307 307 304 298 300 306 290 286 289 288 279 272 266 255 249 247 233 239 235 236 241 241 241 259 255 255 261
256 259 267 276 282 282 283 288 290 292 292 296 299 305 307 308 310 311 310 315 308 308 302 295 284 285 281 274 262 257 263 250 236 247 245 240 244 245 258 250 248 262 273
275 278 284 288 282 278 283 287 290 292 293 293 292 298 303 312 310 311 310 311 316 307 311 303 296 286 281 277 265 255 252 251 252 254 244 223 231 250 237 242 251 264 269
278 284 282 275 273 276 283 283 286 288 289 289 291 293 297 304 304 303 304 307 305 307 294 301 300 291 276 273 266 258 248 247 217 211 218 227 227 229 232 251 260 263 264
265 258 264 275 279 281 278 281 282 280 278 281 285 283 287 295 295 292 294 295 298 299 300 291 298 292 283 268 261 250 229 221 228 221 225 225 227 227 232 245 249 251 273
275 275 278 280 282 282 282 281 278 275 278 280 278 282 282 282 280 289 290 287 289 291 295 286 291 291 287 269 258 236 227 242 235 236 233 225 211 219 224 215 229 291 342
288 287 286 286 286 285 284 282 279 280 281 277 276 279 281 280 278 290 294 277 281 281 285 281 287 281 273 278 271 251 232 228 227 213 211 207 209 199 186 188 231 357 350
293 292 292 289 283 280 280 278 277 279 279 277 277 277 278 278 276 283 295 277 278 272 274 274 274 273 274 258 253 233 247 246 213 210 209 180 172 172 173 185 264 328 336
294 295 291 287 286 286 285 284 282 278 273 269 273 276 274 272 272 275 288 289 274 271 264 262 271 266 275 259 237 241 244 202 186 187 174 171 174 175 185 226 288 322 331
296 295 294 293 293 291 289 287 284 280 277 275 273 266 263 266 266 270 275 286 265 268 258 258 257 272 262 242 223 234 212 188 187 187 184 186 194 205 226 283 293 320 325
300 298 295 293 292 291 291 289 286 283 283 281 275 269 266 264 263 268 271 262 253 260 260 257 259 248 252 228 224 213 206 193 195 198 199 202 213 233 240 272 298 314 313
298 297 297 296 296 295 291 288 286 286 283 276 268 265 265 261 269 260 260 250 251 247 257 252 262 241 231 236 231 202 209 204 208 213 212 211 228 238 249 277 284 299 314
302 300 301 302 302 301 298 293 283 282 283 276 278 262 266 262 265 264 263 250 246 238 243 244 258 244 224 219 217 210 211 228 238 231 229 229 234 243 263 261 271 282 299
302 303 304 303 303 300 288 279 276 275 278 276 270 254 253 260 265 264 257 251 238 235 235 240 240 255 234 229 218 214 219 228 247 252 248 238 236 243 248 257 263 278 295
305 307 309 309 307 305 302 297 285 276 274 271 272 266 264 258 252 266 267 242 241 235 226 219 229 235 245 251 231 207 219 230 239 243 228 231 239 245 247 254 260 276 302
308 309 311 311 311 309 307 306 300 288 276 265 263 260 253 253 257 251 251 243 243 223 224 229 227 224 234 236 228 220 227 225 232 224 221 228 235 241 245 250 260 269 283
309 313 315 314 313 311 309 306 307 310 299 287 266 256 250 250 247 242 237 239 229 232 230 222 227 229 233 234 225 222 222 215 220 224 224 223 237 241 242 243 248 253 274
318 322 323 322 318 315 314 311 307 304 305 304 297 277 256 246 246 237 236 239 236 204 209 213 219 219 221 221 222 221 219 211 225 233 233 232 240 246 245 244 242 251 263
328 331 334 330 328 325 324 321 317 312 308 308 306 295 279 249 234 226 223 224 226 223 213 201 202 200 205 210 215 214 214 216 221 230 239 240 234 234 239 233 230 248 264
336 338 340 338 339 338 336 333 328 325 322 319 313 304 291 258 227 218 213 217 224 225 226 220 216 207 203 203 205 206 210 203 206 213 216 214 207 213 227 216 241 253 265
343 347 337 335 337 340 342 339 337 335 332 331 327 317 286 246 227 216 217 218 215 216 217 225 223 213 204 202 197 198 203 198 196 202 202 208 214 213 218 239 241 236 257
358 355 357 358 360 359 358 357 1 3 1 1 349 352 252 221 217 219 219 220 223 223 222 223 224 222 214 211 201 199 201 200 199 203 209 215 220 224 224 212 227 249 257
18 16 18 23 25 16 16 18 19 18 19 29 25 32 28 302 214 209 204 209 212 218 223 224 223 221 214 217 204 199 201 203 201 199 216 194 184 187 196 220 253 260 257
28 27 28 27 25 25 24 25 26 29 31 37 45 35 32 35 89 178 179 193 201 207 213 212 218 218 206 209 199 191 177 187 200 203 196 189 196 204 220 235 256 275 258
35 33 34 30 30 26 27 26 32 37 34 30 35 46 53 54 74 113 153 184 206 204 208 209 208 208 195 198 191 189 178 170 174 184 194 209 223 242 262 260 258 270 259
40 37 38 36 33 33 30 27 33 34 37 37 36 47 51 61 56 53 78 168 189 191 195 202 208 200 193 193 181 176 180 185 190 203 221 233 240 257 286 252 247 252 251